Location: Unspecified
(0.0000°N, 0.0000°E)
Time: 13:40:23
(UTC+00:00)

SR - Pass Details

Date: 24 November 2019
Orbit: 573 x 882 km, 66.7° (Epoch: 08 December)

Event Time Altitude Azimuth Distance (km) Brightness Sun altitude
Rises 00:24:34 0° 329° (NNW) 3,348 - -67.5°
Reaches altitude 10° 00:27:11 10° 323° (NW) 2,375 - -67.3°
Maximum altitude 00:32:21 44° 251° (WSW) 1,038 - -66.7°
Drops below altitude 10° 00:37:08 10° 179° (S) 2,189 - -66.1°
Sets 00:39:28 0° 173° (S) 3,059 - -65.8°
